| time (UTC) | temp C | wind direction | speed KPH | gust KPH | rain 1hr cm | rain 24hr cm | rain mn cm | humidity % | barometer mb |
| 20260505160150 | 23 | 23 | 3.2 | 6.4 | 0.00 | 0.00 | 0.00 | 87 | 1012.5 |
| 20260505153052 | 22 | 23 | 3.2 | 11.3 | 0.00 | 0.00 | 0.00 | 89 | 1012.4 |
| 20260505152545 | 22 | 23 | 3.2 | 11.3 | 0.00 | 0.00 | 0.00 | 89 | 1012.3 |
| 20260505152034 | 22 | 23 | 3.2 | 17.7 | 0.00 | 0.00 | 0.00 | 90 | 1012.6 |
| 20260505151527 | 22 | 45 | 3.2 | 17.7 | 0.00 | 0.00 | 0.00 | 91 | 1012.3 |
| 20260505151010 | 21 | 0 | 4.8 | 17.7 | 0.00 | 0.00 | 0.00 | 91 | 1012.4 |
| 20260505150500 | 22 | 248 | 3.2 | 14.5 | 0.00 | 0.00 | 0.00 | 91 | 1012.5 |
| 20260505140258 | 19 | 23 | 1.6 | 6.4 | 0.00 | 0.00 | 0.00 | 97 | 1013.7 |
| 20260505125035 | 18 | 45 | 4.8 | 9.7 | 0.00 | 0.00 | 0.00 | 98 | 1013.2 |
| 20260505124527 | 18 | 23 | 6.4 | 9.7 | 0.00 | 0.00 | 0.00 | 98 | 1013.1 |
| 20260505124018 | 18 | 45 | 3.2 | 9.7 | 0.00 | 0.00 | 0.00 | 98 | 1012.9 |
| 20260505123505 | 18 | 23 | 6.4 | 9.7 | 0.00 | 0.00 | 0.00 | 98 | 1012.9 |
| 20260505122957 | 18 | 0 | 4.8 | 11.3 | 0.00 | 0.00 | 0.00 | 98 | 1012.9 |
| 20260505122445 | 18 | 45 | 3.2 | 11.3 | 0.00 | 0.00 | 0.00 | 98 | 1012.8 |
| 20260505121936 | 18 | 45 | 3.2 | 11.3 | 0.00 | 0.00 | 0.00 | 98 | 1013.0 |
| 20260505121425 | 18 | 45 | 1.6 | 11.3 | 0.00 | 0.00 | 0.00 | 98 | 1012.7 |
| 20260505120915 | 18 | 23 | 6.4 | 11.3 | 0.00 | 0.00 | 0.00 | 98 | 1012.8 |
| 20260505120423 | 18 | 45 | 6.4 | 11.3 | 0.00 | 0.00 | 0.00 | 98 | 1012.7 |
| 20260505115855 | 18 | 45 | 3.2 | 11.3 | 0.00 | 0.00 | 0.00 | 98 | 1012.8 |
| 20260505115402 | 18 | 45 | 4.8 | 11.3 | 0.00 | 0.00 | 0.00 | 98 | 1012.7 |
| 20260505114835 | 18 | 45 | 3.2 | 9.7 | 0.00 | 0.00 | 0.00 | 98 | 1012.6 |
| 20260505114326 | 18 | 90 | 3.2 | 6.4 | 0.00 | 0.00 | 0.00 | 98 | 1012.4 |
| 20260505113814 | 18 | 45 | 3.2 | 6.4 | 0.00 | 0.00 | 0.00 | 98 | 1012.7 |
| 20260505113304 | 18 | 45 | 3.2 | 6.4 | 0.00 | 0.00 | 0.00 | 98 | 1012.5 |
| 20260505112754 | 18 | 45 | 3.2 | 6.4 | 0.00 | 0.00 | 0.00 | 98 | 1012.4 |
| 20260505112244 | 18 | 23 | 1.6 | 9.7 | 0.00 | 0.00 | 0.00 | 98 | 1012.6 |
| 20260505111736 | 18 | 45 | 4.8 | 9.7 | 0.00 | 0.00 | 0.00 | 98 | 1012.4 |
| 20260505111224 | 18 | 68 | 3.2 | 6.4 | 0.00 | 0.00 | 0.00 | 98 | 1012.4 |
| 20260505110728 | 18 | 68 | 3.2 | 6.4 | 0.00 | 0.00 | 0.00 | 98 | 1012.3 |
| 20260505110218 | 18 | 23 | 4.8 | 9.7 | 0.00 | 0.00 | 0.00 | 98 | 1012.2 |
| 20260505102043 | 17 | 45 | 4.8 | 11.3 | 0.00 | 0.00 | 0.00 | 98 | 1011.8 |
| 20260505101022 | 17 | 45 | 3.2 | 6.4 | 0.00 | 0.00 | 0.00 | 98 | 1011.6 |
| 20260505100514 | 17 | 23 | 3.2 | 6.4 | 0.00 | 0.00 | 0.00 | 98 | 1011.8 |
| 20260505100110 | 17 | 45 | 3.2 | 6.4 | 0.00 | 0.00 | 0.00 | 98 | 1011.4 |
| 20260505094942 | 17 | 68 | 3.2 | 9.7 | 0.00 | 0.00 | 0.00 | 98 | 1011.6 |
| 20260505094432 | 17 | 90 | 3.2 | 9.7 | 0.00 | 0.00 | 0.00 | 98 | 1011.5 |
| 20260505093923 | 17 | 45 | 3.2 | 6.4 | 0.00 | 0.00 | 0.00 | 98 | 1011.5 |
| 20260505093413 | 17 | 45 | 3.2 | 6.4 | 0.00 | 0.00 | 0.00 | 98 | 1011.4 |
| 20260505092901 | 17 | 68 | 3.2 | 6.4 | 0.00 | 0.00 | 0.00 | 98 | 1011.3 |
| 20260505092353 | 17 | 45 | 3.2 | 6.4 | 0.00 | 0.00 | 0.00 | 98 | 1011.2 |
| 20260505090822 | 18 | 45 | 3.2 | 6.4 | 0.00 | 0.00 | 0.00 | 97 | 1011.3 |
| 20260505090311 | 18 | 45 | 1.6 | 6.4 | 0.00 | 0.00 | 0.00 | 97 | 1011.3 |
| 20260505085801 | 17 | 68 | 1.6 | 6.4 | 0.00 | 0.00 | 0.00 | 97 | 1011.3 |
| 20260505085251 | 18 | 68 | 1.6 | 6.4 | 0.00 | 0.00 | 0.00 | 97 | 1011.5 |
| 20260505084742 | 18 | 45 | 3.2 | 6.4 | 0.00 | 0.00 | 0.00 | 97 | 1011.5 |
| 20260505084231 | 17 | 45 | 3.2 | 6.4 | 0.00 | 0.00 | 0.00 | 97 | 1011.4 |
| 20260505083720 | 17 | 68 | 3.2 | 6.4 | 0.00 | 0.00 | 0.00 | 97 | 1011.0 |
| 20260505083210 | 18 | 45 | 4.8 | 6.4 | 0.00 | 0.00 | 0.00 | 97 | 1010.9 |
| 20260505082701 | 18 | 90 | 4.8 | 6.4 | 0.00 | 0.00 | 0.00 | 97 | 1010.8 |
| 20260505082152 | 18 | 90 | 3.2 | 9.7 | 0.00 | 0.00 | 0.00 | 97 | 1011.1 |
| 20260505081641 | 18 | 45 | 4.8 | 9.7 | 0.00 | 0.00 | 0.00 | 97 | 1011.2 |
| 20260505081130 | 18 | 45 | 3.2 | 6.4 | 0.00 | 0.00 | 0.00 | 97 | 1011.4 |
| 20260505080622 | 18 | 90 | 4.8 | 9.7 | 0.00 | 0.00 | 0.00 | 96 | 1011.1 |
| 20260505080110 | 18 | 23 | 4.8 | 9.7 | 0.00 | 0.00 | 0.00 | 96 | 1011.3 |
| 20260505075050 | 18 | 45 | 3.2 | 6.4 | 0.00 | 0.00 | 0.00 | 96 | 1011.3 |
| 20260505074539 | 18 | 45 | 3.2 | 6.4 | 0.00 | 0.00 | 0.00 | 96 | 1011.1 |
| 20260505074030 | 18 | 68 | 3.2 | 6.4 | 0.00 | 0.00 | 0.00 | 96 | 1011.2 |
| 20260505073519 | 18 | 45 | 3.2 | 6.4 | 0.00 | 0.00 | 0.00 | 96 | 1011.3 |
| 20260505073010 | 18 | 45 | 3.2 | 6.4 | 0.00 | 0.00 | 0.00 | 96 | 1011.5 |
| 20260505072458 | 18 | 0 | 3.2 | 9.7 | 0.00 | 0.00 | 0.00 | 96 | 1011.2 |
| 20260505071950 | 18 | 45 | 3.2 | 9.7 | 0.00 | 0.00 | 0.00 | 96 | 1011.3 |
| 20260505071438 | 18 | 45 | 3.2 | 6.4 | 0.00 | 0.00 | 0.00 | 95 | 1011.5 |
| 20260505070419 | 18 | 23 | 3.2 | 9.7 | 0.00 | 0.00 | 0.00 | 95 | 1011.7 |
| 20260505065400 | 18 | 0 | 4.8 | 6.4 | 0.00 | 0.00 | 0.00 | 95 | 1012.0 |
| 20260505064847 | 18 | 23 | 3.2 | 0.0 | 0.00 | 0.00 | 0.00 | 95 | 1011.7 |
| 20260505064649 | 18 | 0 | 3.2 | 0.0 | 0.00 | 0.00 | 0.00 | 95 | 1011.6 |
| 20260505064028 | 18 | 23 | 4.8 | 11.3 | 0.00 | 0.00 | 0.00 | 95 | 1011.7 |
| 20260505063519 | 18 | 23 | 3.2 | 14.5 | 0.00 | 0.00 | 0.00 | 95 | 1011.5 |
| 20260505063009 | 18 | 23 | 3.2 | 14.5 | 0.00 | 0.00 | 0.00 | 95 | 1011.7 |
| 20260505062458 | 18 | 293 | 4.8 | 14.5 | 0.00 | 0.00 | 0.00 | 95 | 1011.9 |
| 20260505061949 | 18 | 0 | 6.4 | 14.5 | 0.00 | 0.00 | 0.00 | 95 | 1011.8 |
| 20260505061437 | 18 | 23 | 6.4 | 11.3 | 0.00 | 0.00 | 0.00 | 95 | 1011.6 |
| 20260505060928 | 18 | 0 | 6.4 | 14.5 | 0.00 | 0.00 | 0.00 | 95 | 1011.6 |
| 20260505060418 | 18 | 23 | 4.8 | 14.5 | 0.00 | 0.00 | 0.00 | 95 | 1011.6 |
| 20260505055357 | 18 | 293 | 6.4 | 14.5 | 0.00 | 0.00 | 0.00 | 95 | 1011.5 |
| 20260505054847 | 18 | 23 | 3.2 | 14.5 | 0.00 | 0.00 | 0.00 | 95 | 1011.3 |
| 20260505054338 | 18 | 45 | 6.4 | 14.5 | 0.00 | 0.00 | 0.00 | 94 | 1011.1 |
| 20260505053318 | 18 | 23 | 3.2 | 14.5 | 0.00 | 0.00 | 0.00 | 94 | 1011.3 |
| 20260505052807 | 18 | 338 | 4.8 | 14.5 | 0.00 | 0.00 | 0.00 | 94 | 1011.4 |
| 20260505052257 | 18 | 0 | 8.0 | 14.5 | 0.00 | 0.00 | 0.00 | 94 | 1011.5 |
| 20260505051746 | 18 | 23 | 6.4 | 12.9 | 0.00 | 0.00 | 0.00 | 94 | 1011.5 |
| 20260505051236 | 18 | 23 | 4.8 | 12.9 | 0.00 | 0.00 | 0.00 | 94 | 1011.6 |
| 20260505050727 | 18 | 0 | 6.4 | 17.7 | 0.00 | 0.00 | 0.00 | 94 | 1011.6 |
| 20260505050219 | 18 | 0 | 4.8 | 17.7 | 0.00 | 0.00 | 0.00 | 94 | 1011.6 |
| 20260505041543 | 18 | 338 | 8.0 | 17.7 | 0.00 | 0.00 | 0.00 | 93 | 1011.6 |
| 20260505041035 | 18 | 315 | 6.4 | 17.7 | 0.00 | 0.00 | 0.00 | 92 | 1011.9 |
| 20260505040525 | 18 | 338 | 6.4 | 17.7 | 0.00 | 0.00 | 0.00 | 93 | 1011.7 |
| 20260505040026 | 18 | 23 | 6.4 | 17.7 | 0.00 | 0.00 | 0.00 | 92 | 1011.7 |
| 20260505035505 | 18 | 23 | 11.3 | 17.7 | 0.00 | 0.00 | 0.00 | 92 | 1011.7 |
| 20260505034955 | 18 | 23 | 8.0 | 14.5 | 0.00 | 0.00 | 0.00 | 92 | 1011.7 |
| 20260505034446 | 18 | 0 | 6.4 | 14.5 | 0.00 | 0.00 | 0.00 | 92 | 1011.6 |
| 20260505033424 | 18 | 0 | 6.4 | 14.5 | 0.00 | 0.00 | 0.00 | 92 | 1011.8 |
| 20260505032916 | 18 | 0 | 9.7 | 17.7 | 0.00 | 0.00 | 0.00 | 92 | 1011.8 |
| 20260505032404 | 18 | 315 | 6.4 | 17.7 | 0.00 | 0.00 | 0.00 | 92 | 1011.8 |
| 20260505031856 | 18 | 338 | 8.0 | 17.7 | 0.00 | 0.00 | 0.00 | 92 | 1011.7 |
| 20260505030835 | 18 | 23 | 6.4 | 12.9 | 0.00 | 0.00 | 0.00 | 91 | 1011.6 |
| 20260505025813 | 18 | 23 | 3.2 | 12.9 | 0.00 | 0.00 | 0.00 | 91 | 1011.5 |
| 20260505025305 | 18 | 23 | 3.2 | 12.9 | 0.00 | 0.00 | 0.00 | 91 | 1011.5 |
| 20260505024753 | 18 | 45 | 3.2 | 11.3 | 0.00 | 0.00 | 0.00 | 90 | 1011.3 |
| 20260505024245 | 17 | 68 | 4.8 | 12.9 | 0.00 | 0.00 | 0.00 | 90 | 1011.4 |
| 20260505023223 | 17 | 45 | 4.8 | 9.7 | 0.00 | 0.00 | 0.00 | 89 | 1011.5 |
| 20260505022203 | 17 | 338 | 3.2 | 6.4 | 0.00 | 0.00 | 0.00 | 88 | 1011.5 |
| 20260505021654 | 17 | 0 | 3.2 | 6.4 | 0.00 | 0.00 | 0.00 | 88 | 1011.3 |
| 20260505021143 | 17 | 45 | 3.2 | 6.4 | 0.00 | 0.00 | 0.00 | 88 | 1011.4 |
| 20260505020633 | 17 | 23 | 3.2 | 6.4 | 0.00 | 0.00 | 0.00 | 87 | 1011.3 |
| 20260505020122 | 17 | 23 | 3.2 | 6.4 | 0.00 | 0.00 | 0.00 | 87 | 1011.3 |
| 20260505015612 | 17 | 45 | 3.2 | 6.4 | 0.00 | 0.00 | 0.00 | 86 | 1011.3 |
| 20260505014554 | 17 | 23 | 3.2 | 6.4 | 0.00 | 0.00 | 0.00 | 85 | 1011.2 |
| 20260505014044 | 17 | 23 | 3.2 | 6.4 | 0.00 | 0.00 | 0.00 | 85 | 1011.0 |
| 20260505013532 | 17 | 68 | 4.8 | 6.4 | 0.00 | 0.00 | 0.00 | 84 | 1011.0 |
| 20260505013021 | 17 | 45 | 3.2 | 6.4 | 0.00 | 0.00 | 0.00 | 84 | 1010.9 |
| 20260505012513 | 16 | 45 | 3.2 | 6.4 | 0.00 | 0.00 | 0.00 | 84 | 1011.0 |
| 20260505012004 | 16 | 23 | 3.2 | 6.4 | 0.00 | 0.00 | 0.00 | 84 | 1010.9 |
| 20260505010941 | 16 | 45 | 3.2 | 6.4 | 0.00 | 0.00 | 0.00 | 84 | 1010.7 |
| 20260505010432 | 16 | 45 | 3.2 | 9.7 | 0.00 | 0.00 | 0.00 | 83 | 1011.0 |
| 20260505005922 | 16 | 23 | 3.2 | 9.7 | 0.00 | 0.00 | 0.00 | 82 | 1010.8 |
| 20260505005411 | 16 | 23 | 6.4 | 9.7 | 0.00 | 0.00 | 0.00 | 82 | 1010.8 |
| 20260505004902 | 16 | 45 | 3.2 | 9.7 | 0.00 | 0.00 | 0.00 | 82 | 1010.8 |
| 20260505004351 | 16 | 23 | 3.2 | 9.7 | 0.00 | 0.00 | 0.00 | 83 | 1010.7 |
| 20260505003843 | 16 | 23 | 3.2 | 9.7 | 0.00 | 0.00 | 0.00 | 82 | 1010.8 |
| 20260505003331 | 16 | 45 | 4.8 | 9.7 | 0.00 | 0.00 | 0.00 | 82 | 1010.8 |
| 20260505002820 | 17 | 23 | 3.2 | 9.7 | 0.00 | 0.00 | 0.00 | 82 | 1010.6 |
| 20260505002311 | 17 | 23 | 3.2 | 9.7 | 0.00 | 0.00 | 0.00 | 81 | 1010.8 |
| 20260505001759 | 17 | 23 | 3.2 | 6.4 | 0.00 | 0.00 | 0.00 | 81 | 1010.7 |
| 20260505001250 | 17 | 23 | 3.2 | 6.4 | 0.00 | 0.00 | 0.00 | 81 | 1010.5 |
| 20260505000741 | 17 | 45 | 3.2 | 6.4 | 0.00 | 0.00 | 0.00 | 81 | 1010.4 |
| 20260505000233 | 17 | 45 | 3.2 | 6.4 | 0.00 | 0.00 | 0.00 | 81 | 1010.7 |
| 20260504235720 | 17 | 23 | 4.8 | 6.4 | 0.00 | 0.00 | 0.00 | 82 | 1010.6 |
| 20260504235209 | 17 | 23 | 3.2 | 6.4 | 0.00 | 0.00 | 0.00 | 82 | 1010.4 |
| 20260504233129 | 17 | 68 | 3.2 | 6.4 | 0.00 | 0.00 | 0.00 | 80 | 1010.4 |
| 20260504232619 | 17 | 45 | 3.2 | 6.4 | 0.00 | 0.00 | 0.00 | 80 | 1010.4 |
| 20260504231559 | 18 | 68 | 3.2 | 6.4 | 0.00 | 0.00 | 0.00 | 77 | 1010.3 |
| 20260504231049 | 18 | 45 | 3.2 | 9.7 | 0.00 | 0.00 | 0.00 | 77 | 1010.2 |
| 20260504230539 | 18 | 45 | 3.2 | 9.7 | 0.00 | 0.00 | 0.00 | 74 | 1010.4 |
| 20260504230029 | 19 | 45 | 3.2 | 6.4 | 0.00 | 0.00 | 0.00 | 73 | 1010.0 |
| 20260504225519 | 19 | 23 | 3.2 | 6.4 | 0.00 | 0.00 | 0.00 | 72 | 1009.8 |
| 20260504225008 | 19 | 0 | 1.6 | 6.4 | 0.00 | 0.00 | 0.00 | 72 | 1009.9 |
| 20260504223437 | 19 | 45 | 3.2 | 6.4 | 0.00 | 0.00 | 0.00 | 71 | 1009.9 |
| 20260504221357 | 20 | 23 | 4.8 | 9.7 | 0.00 | 0.00 | 0.00 | 69 | 1009.5 |
| 20260504220846 | 20 | 23 | 3.2 | 9.7 | 0.00 | 0.00 | 0.00 | 68 | 1009.6 |
| 20260504220337 | 20 | 0 | 3.2 | 11.3 | 0.00 | 0.00 | 0.00 | 68 | 1009.4 |
| 20260504215826 | 20 | 23 | 3.2 | 11.3 | 0.00 | 0.00 | 0.00 | 67 | 1009.3 |
| 20260504215317 | 20 | 338 | 3.2 | 9.7 | 0.00 | 0.00 | 0.00 | 66 | 1009.4 |
| 20260504214806 | 20 | 45 | 4.8 | 9.7 | 0.00 | 0.00 | 0.00 | 66 | 1009.3 |
| 20260504214256 | 21 | 45 | 3.2 | 9.7 | 0.00 | 0.00 | 0.00 | 65 | 1009.4 |
| 20260504213753 | 21 | 23 | 4.8 | 9.7 | 0.00 | 0.00 | 0.00 | 64 | 1009.3 |
| 20260504213236 | 21 | 23 | 3.2 | 9.7 | 0.00 | 0.00 | 0.00 | 64 | 1009.2 |
| 20260504212726 | 21 | 68 | 3.2 | 9.7 | 0.00 | 0.00 | 0.00 | 63 | 1009.2 |
| 20260504212217 | 21 | 23 | 1.6 | 9.7 | 0.00 | 0.00 | 0.00 | 62 | 1009.2 |
| 20260504211706 | 22 | 23 | 3.2 | 9.7 | 0.00 | 0.00 | 0.00 | 62 | 1009.2 |
| 20260504210135 | 22 | 23 | 3.2 | 14.5 | 0.00 | 0.00 | 0.00 | 59 | 1009.1 |
| 20260504205627 | 23 | 0 | 4.8 | 14.5 | 0.00 | 0.00 | 0.00 | 58 | 1009.1 |
| 20260504205116 | 23 | 338 | 6.4 | 14.5 | 0.00 | 0.00 | 0.00 | 57 | 1009.2 |
| 20260504204605 | 23 | 45 | 6.4 | 12.9 | 0.00 | 0.00 | 0.00 | 55 | 1009.2 |
| 20260504204056 | 24 | 68 | 6.4 | 14.5 | 0.00 | 0.00 | 0.00 | 54 | 1009.1 |
| 20260504203559 | 24 | 338 | 4.8 | 14.5 | 0.00 | 0.00 | 0.00 | 54 | 1009.1 |
| 20260504203035 | 24 | 23 | 6.4 | 20.9 | 0.00 | 0.00 | 0.00 | 53 | 1009.1 |
| 20260504202525 | 24 | 338 | 6.4 | 20.9 | 0.00 | 0.00 | 0.00 | 52 | 1009.1 |
| 20260504201506 | 25 | 338 | 6.4 | 24.1 | 0.00 | 0.00 | 0.00 | 52 | 1008.9 |
| 20260504200954 | 25 | 315 | 9.7 | 24.1 | 0.00 | 0.00 | 0.00 | 52 | 1009.0 |
| 20260504200445 | 25 | 338 | 9.7 | 20.9 | 0.00 | 0.00 | 0.00 | 52 | 1008.9 |
| 20260504195427 | 25 | 45 | 12.9 | 20.9 | 0.00 | 0.00 | 0.00 | 51 | 1009.2 |
| 20260504194914 | 25 | 0 | 11.3 | 22.5 | 0.00 | 0.00 | 0.00 | 51 | 1009.0 |
| 20260504193854 | 25 | 338 | 11.3 | 20.9 | 0.00 | 0.00 | 0.00 | 50 | 1009.3 |
| 20260504193345 | 25 | 23 | 4.8 | 17.7 | 0.00 | 0.00 | 0.00 | 51 | 1009.3 |
| 20260504192834 | 25 | 0 | 6.4 | 25.7 | 0.00 | 0.00 | 0.00 | 51 | 1009.5 |
| 20260504192323 | 25 | 23 | 8.0 | 25.7 | 0.00 | 0.00 | 0.00 | 50 | 1009.6 |
| 20260504191814 | 25 | 23 | 8.0 | 20.9 | 0.00 | 0.00 | 0.00 | 50 | 1009.4 |
| 20260504190753 | 25 | 0 | 17.7 | 22.5 | 0.00 | 0.00 | 0.00 | 49 | 1009.6 |
| 20260504190245 | 25 | 45 | 8.0 | 24.1 | 0.00 | 0.00 | 0.00 | 49 | 1009.8 |
| 20260504185733 | 25 | 315 | 9.7 | 24.1 | 0.00 | 0.00 | 0.00 | 49 | 1009.7 |
| 20260504185222 | 25 | 113 | 11.3 | 24.1 | 0.00 | 0.00 | 0.00 | 49 | 1009.8 |
| 20260504184714 | 25 | 270 | 17.7 | 22.5 | 0.00 | 0.00 | 0.00 | 49 | 1009.9 |
| 20260504184202 | 25 | 23 | 6.4 | 22.5 | 0.00 | 0.00 | 0.00 | 49 | 1010.0 |
| 20260504183653 | 25 | 338 | 14.5 | 22.5 | 0.00 | 0.00 | 0.00 | 49 | 1010.0 |
| 20260504183142 | 24 | 90 | 8.0 | 20.9 | 0.00 | 0.00 | 0.00 | 50 | 1010.1 |
| 20260504182634 | 24 | 0 | 11.3 | 20.9 | 0.00 | 0.00 | 0.00 | 50 | 1010.3 |
| 20260504182122 | 24 | 68 | 11.3 | 25.7 | 0.00 | 0.00 | 0.00 | 50 | 1010.1 |
| 20260504181614 | 24 | 338 | 9.7 | 27.4 | 0.00 | 0.00 | 0.00 | 50 | 1010.4 |
| 20260504181103 | 24 | 68 | 8.0 | 27.4 | 0.00 | 0.00 | 0.00 | 50 | 1010.6 |
| 20260504180556 | 24 | 0 | 12.9 | 24.1 | 0.00 | 0.00 | 0.00 | 49 | 1010.6 |
| 20260504175533 | 24 | 45 | 8.0 | 22.5 | 0.00 | 0.00 | 0.00 | 50 | 1010.6 |
| 20260504174512 | 23 | 0 | 12.9 | 17.7 | 0.00 | 0.00 | 0.00 | 50 | 1010.5 |
| 20260504174001 | 24 | 270 | 8.0 | 24.1 | 0.00 | 0.00 | 0.00 | 49 | 1010.8 |
| 20260504173452 | 24 | 45 | 6.4 | 24.1 | 0.00 | 0.00 | 0.00 | 48 | 1010.9 |
| 20260504172941 | 23 | 68 | 16.1 | 24.1 | 0.00 | 0.00 | 0.00 | 50 | 1010.7 |
| 20260504172433 | 24 | 338 | 12.9 | 22.5 | 0.00 | 0.00 | 0.00 | 49 | 1010.8 |
| 20260504171920 | 23 | 338 | 8.0 | 22.5 | 0.00 | 0.00 | 0.00 | 49 | 1011.1 |
| 20260504171410 | 23 | 23 | 6.4 | 22.5 | 0.00 | 0.00 | 0.00 | 49 | 1011.1 |
| 20260504170902 | 23 | 0 | 8.0 | 24.1 | 0.00 | 0.00 | 0.00 | 50 | 1011.1 |
| 20260504170351 | 23 | 293 | 11.3 | 24.1 | 0.00 | 0.00 | 0.00 | 50 | 1011.2 |